Time,TemperatureF,DewpointF,PressureIn,WindDirection,WindDirectionDegrees,WindSpeedMPH,WindSpeedGustMPH,Humidity,HourlyPrecipIn,Conditions,Clouds,dailyrainin,SoftwareType,DateUTC
2013-11-21 10:18:00,37.6,22.5,30.56,NE,48,1.0,1.0,54,0.00,,CLR,0.00,VWS V14.01,2013-11-21 15:18:00,
2013-11-21 10:19:00,37.7,22.6,30.56,ESE,102,1.0,2.0,54,0.00,,CLR,0.00,VWS V14.01,2013-11-21 15:19:00,
2013-11-21 10:24:00,38.1,22.9,30.55,ESE,105,1.0,4.0,54,0.00,,CLR,0.00,VWS V14.01,2013-11-21 15:24:00,
2013-11-21 10:29:00,38.3,23.1,30.55,East,94,2.0,4.0,54,0.00,,CLR,0.00,VWS V14.01,2013-11-21 15:29:00,
2013-11-21 10:34:00,38.5,22.9,30.55,East,83,2.0,5.0,53,0.00,,FEW031,0.00,VWS V14.01,2013-11-21 15:34:00,
2013-11-21 10:39:00,38.7,23.9,30.54,East,82,0.0,6.0,55,0.00,,FEW031,0.00,VWS V14.01,2013-11-21 15:39:00,
2013-11-21 10:44:00,39.1,23.9,30.54,East,89,5.0,6.0,54,0.00,,FEW031,0.00,VWS V14.01,2013-11-21 15:44:00,
2013-11-21 10:49:00,39.1,23.9,30.54,ESE,105,1.0,7.0,54,0.00,,FEW031,0.00,VWS V14.01,2013-11-21 15:49:00,
2013-11-21 10:54:00,39.5,24.2,30.53,NE,44,2.0,7.0,54,0.00,,FEW031,0.00,VWS V14.01,2013-11-21 15:54:00,
2013-11-21 10:59:00,40.0,25.1,30.54,SW,232,0.0,7.0,55,0.00,,FEW031,0.00,VWS V14.01,2013-11-21 15:59:00,
2013-11-21 11:04:00,40.4,25.5,30.53,ESE,117,2.0,6.0,55,0.00,,OVC031,0.00,VWS V14.01,2013-11-21 16:04:00,
2013-11-21 11:09:00,40.8,26.3,30.52,SW,224,1.0,6.0,56,0.00,,OVC031,0.00,VWS V14.01,2013-11-21 16:09:00,
2013-11-21 11:14:00,41.3,26.8,30.52,SW,219,1.0,6.0,56,0.00,,OVC031,0.00,VWS V14.01,2013-11-21 16:14:00,
2013-11-21 11:19:00,41.7,27.2,30.52,South,177,2.0,6.0,56,0.00,,OVC031,0.00,VWS V14.01,2013-11-21 16:19:00,
2013-11-21 11:24:00,42.0,27.5,30.51,SE,138,3.0,6.0,56,0.00,,OVC031,0.00,VWS V14.01,2013-11-21 16:24:00,
2013-11-21 11:29:00,41.9,27.4,30.51,ESE,115,1.0,7.0,56,0.00,,OVC031,0.00,VWS V14.01,2013-11-21 16:29:00,
2013-11-21 11:33:00,42.3,28.2,30.50,ESE,105,0.0,7.0,57,0.00,,BKN029,0.00,VWS V14.01,2013-11-21 16:33:00,
2013-11-21 11:38:00,43.0,28.8,30.50,WSW,250,2.0,7.0,57,0.00,,BKN029,0.00,VWS V14.01,2013-11-21 16:38:00,
2013-11-21 11:43:00,43.6,29.4,30.50,SW,224,3.0,7.0,57,0.00,,BKN029,0.00,VWS V14.01,2013-11-21 16:43:00,
2013-11-21 11:48:00,44.0,29.3,30.50,ESE,109,2.0,8.0,56,0.00,,BKN029,0.00,VWS V14.01,2013-11-21 16:48:00,
2013-11-21 11:53:00,44.4,29.7,30.49,East,79,1.0,8.0,56,0.00,,BKN029,0.00,VWS V14.01,2013-11-21 16:53:00,
2013-11-21 11:58:00,44.5,29.8,30.49,East,87,2.0,8.0,56,0.00,,BKN029,0.00,VWS V14.01,2013-11-21 16:58:00,
2013-11-21 12:03:00,44.9,29.7,30.49,ESE,103,5.0,7.0,55,0.00,,BKN029,0.00,VWS V14.01,2013-11-21 17:03:00,
2013-11-21 12:08:00,44.7,30.4,30.49,East,87,0.0,10.0,57,0.00,,BKN029,0.00,VWS V14.01,2013-11-21 17:08:00,
2013-11-21 12:13:00,44.9,29.7,30.49,SW,233,1.0,10.0,55,0.00,,BKN029,0.00,VWS V14.01,2013-11-21 17:13:00,
2013-11-21 12:18:00,45.2,30.9,30.49,SSW,197,1.0,10.0,57,0.00,,BKN029,0.00,VWS V14.01,2013-11-21 17:18:00,
2013-11-21 12:23:00,45.0,30.3,30.48,ESE,103,4.0,10.0,56,0.00,,BKN029,0.00,VWS V14.01,2013-11-21 17:23:00,
2013-11-21 12:28:00,44.5,30.2,30.48,SW,235,1.0,12.0,57,0.00,,BKN029,0.00,VWS V14.01,2013-11-21 17:28:00,
2013-11-21 12:33:00,44.5,30.2,30.48,SW,219,3.0,6.0,57,0.00,,BKN031,0.00,VWS V14.01,2013-11-21 17:33:00,
2013-11-21 12:38:00,44.4,30.6,30.48,SW,215,3.0,6.0,58,0.00,,BKN031,0.00,VWS V14.01,2013-11-21 17:38:00,
2013-11-21 12:43:00,44.4,31.0,30.48,SW,235,2.0,6.0,59,0.00,,BKN031,0.00,VWS V14.01,2013-11-21 17:43:00,
2013-11-21 12:48:00,44.3,30.9,30.48,WSW,250,4.0,6.0,59,0.00,,BKN031,0.00,VWS V14.01,2013-11-21 17:48:00,
2013-11-21 12:53:00,44.2,30.8,30.48,ENE,74,1.0,6.0,59,0.00,,BKN031,0.00,VWS V14.01,2013-11-21 17:53:00,
2013-11-21 12:58:00,44.3,31.3,30.48,East,87,0.0,6.0,60,0.00,,BKN031,0.00,VWS V14.01,2013-11-21 17:58:00,
2013-11-21 13:03:00,44.3,31.3,30.47,WNW,302,0.0,5.0,60,0.00,,BKN033,0.00,VWS V14.01,2013-11-21 18:03:00,
2013-11-21 13:08:00,44.5,31.5,30.47,ENE,58,0.0,5.0,60,0.00,,BKN033,0.00,VWS V14.01,2013-11-21 18:08:00,
2013-11-21 13:13:00,44.7,31.7,30.47,ENE,70,0.0,5.0,60,0.00,,BKN033,0.00,VWS V14.01,2013-11-21 18:13:00,
2013-11-21 13:18:00,44.8,31.4,30.47,SW,225,2.0,6.0,59,0.00,,BKN033,0.00,VWS V14.01,2013-11-21 18:18:00,
2013-11-21 13:23:00,44.7,31.7,30.47,SW,224,0.0,6.0,60,0.00,,BKN033,0.00,VWS V14.01,2013-11-21 18:23:00,
2013-11-21 13:28:00,44.9,31.5,30.47,East,80,0.0,6.0,59,0.00,,BKN033,0.00,VWS V14.01,2013-11-21 18:28:00,
2013-11-21 13:33:00,44.9,31.9,30.47,SSW,212,5.0,5.0,60,0.00,,BKN033,0.00,VWS V14.01,2013-11-21 18:33:00,
2013-11-21 13:38:00,44.9,31.9,30.47,ESE,123,1.0,6.0,60,0.00,,BKN033,0.00,VWS V14.01,2013-11-21 18:38:00,
2013-11-21 13:43:00,45.0,32.4,30.47,SW,232,2.0,6.0,61,0.00,,BKN033,0.00,VWS V14.01,2013-11-21 18:43:00,
2013-11-21 13:48:00,44.8,32.2,30.47,SSW,212,1.0,7.0,61,0.00,,BKN033,0.00,VWS V14.01,2013-11-21 18:48:00,
2013-11-21 13:53:00,44.8,32.2,30.46,West,269,0.0,7.0,61,0.00,,BKN033,0.00,VWS V14.01,2013-11-21 18:53:00,
2013-11-21 13:58:00,44.8,32.2,30.46,ESE,110,1.0,7.0,61,0.00,,BKN033,0.00,VWS V14.01,2013-11-21 18:58:00,
2013-11-21 14:03:00,44.7,32.1,30.46,East,91,2.0,5.0,61,0.00,,BKN100,0.00,VWS V14.01,2013-11-21 19:03:00,
2013-11-21 14:08:00,44.5,32.3,30.46,East,79,1.0,5.0,62,0.00,,BKN100,0.00,VWS V14.01,2013-11-21 19:08:00,
2013-11-21 14:13:00,44.3,32.1,30.45,East,101,1.0,5.0,62,0.00,,BKN100,0.00,VWS V14.01,2013-11-21 19:13:00,
2013-11-21 14:18:00,44.1,32.7,30.45,East,98,0.0,6.0,64,0.00,,BKN100,0.00,VWS V14.01,2013-11-21 19:18:00,
2013-11-21 14:23:00,43.9,32.5,30.45,ESE,112,2.0,6.0,64,0.00,,BKN100,0.00,VWS V14.01,2013-11-21 19:23:00,
2013-11-21 14:28:00,43.7,33.1,30.44,SW,215,1.0,6.0,66,0.00,,BKN100,0.00,VWS V14.01,2013-11-21 19:28:00,
2013-11-21 14:33:00,43.5,32.9,30.44,WSW,252,0.0,4.0,66,0.00,,BKN100,0.00,VWS V14.01,2013-11-21 19:33:00,
2013-11-21 14:38:00,43.5,33.3,30.44,SE,141,0.0,4.0,67,0.00,,BKN100,0.00,VWS V14.01,2013-11-21 19:38:00,
2013-11-21 14:43:00,43.3,32.7,30.43,SSE,149,0.0,5.0,66,0.00,,BKN100,0.00,VWS V14.01,2013-11-21 19:43:00,
2013-11-21 14:48:00,43.5,33.3,30.43,SW,236,1.0,5.0,67,0.00,,BKN100,0.00,VWS V14.01,2013-11-21 19:48:00,
2013-11-21 14:53:00,43.5,32.9,30.43,South,174,2.0,5.0,66,0.00,,BKN100,0.00,VWS V14.01,2013-11-21 19:53:00,
2013-11-21 14:58:00,43.6,33.0,30.43,WSW,248,0.0,5.0,66,0.00,,BKN100,0.00,VWS V14.01,2013-11-21 19:58:00,
2013-11-21 15:03:00,43.6,32.6,30.44,ENE,60,0.0,2.0,65,0.00,,OVC070,0.00,VWS V14.01,2013-11-21 20:03:00,
2013-11-21 15:08:00,43.6,32.6,30.44,ESE,104,0.0,3.0,65,0.00,,OVC070,0.00,VWS V14.01,2013-11-21 20:08:00,
2013-11-21 15:13:00,43.5,32.5,30.44,ESE,113,1.0,5.0,65,0.00,,OVC070,0.00,VWS V14.01,2013-11-21 20:13:00,
2013-11-21 15:18:00,43.5,32.5,30.44,East,101,0.0,5.0,65,0.00,,OVC070,0.00,VWS V14.01,2013-11-21 20:18:00,
2013-11-21 15:23:00,43.4,32.4,30.44,ESE,110,1.0,5.0,65,0.00,,OVC070,0.00,VWS V14.01,2013-11-21 20:23:00,
2013-11-21 15:28:00,43.4,32.8,30.44,East,96,1.0,5.0,66,0.00,,OVC070,0.00,VWS V14.01,2013-11-21 20:28:00,
2013-11-21 15:33:00,43.4,32.4,30.44,East,87,1.0,3.0,65,0.00,,OVC070,0.00,VWS V14.01,2013-11-21 20:33:00,
2013-11-21 15:38:00,43.3,32.3,30.45,ESE,117,0.0,4.0,65,0.00,,OVC070,0.00,VWS V14.01,2013-11-21 20:38:00,
2013-11-21 15:43:00,43.3,32.3,30.44,ESE,117,0.0,4.0,65,0.00,,OVC070,0.00,VWS V14.01,2013-11-21 20:43:00,
2013-11-21 15:48:00,43.3,32.7,30.44,ESE,117,0.0,4.0,66,0.00,,OVC070,0.00,VWS V14.01,2013-11-21 20:48:00,
2013-11-21 15:53:00,43.4,32.8,30.44,East,84,0.0,4.0,66,0.00,,OVC070,0.00,VWS V14.01,2013-11-21 20:53:00,
2013-11-21 15:58:00,43.3,32.7,30.44,East,85,1.0,4.0,66,0.00,,OVC070,0.00,VWS V14.01,2013-11-21 20:58:00,
2013-11-21 16:03:00,43.3,32.7,30.44,East,80,0.0,1.0,66,0.00,,OVC029,0.00,VWS V14.01,2013-11-21 21:03:00,
2013-11-21 16:08:00,43.3,33.1,30.44,East,98,0.0,2.0,67,0.00,,OVC029,0.00,VWS V14.01,2013-11-21 21:08:00,
2013-11-21 16:13:00,43.3,33.1,30.44,ESE,107,1.0,4.0,67,0.00,,OVC029,0.00,VWS V14.01,2013-11-21 21:13:00,
2013-11-21 16:18:00,43.3,33.1,30.44,East,80,0.0,4.0,67,0.00,,OVC029,0.00,VWS V14.01,2013-11-21 21:18:00,
2013-11-21 16:23:00,43.2,33.0,30.44,East,97,3.0,4.0,67,0.00,,OVC029,0.00,VWS V14.01,2013-11-21 21:23:00,
2013-11-21 16:28:00,43.1,32.9,30.44,SSE,149,1.0,4.0,67,0.00,,OVC029,0.00,VWS V14.01,2013-11-21 21:28:00,
2013-11-21 16:33:00,43.1,32.9,30.44,East,101,2.0,2.0,67,0.00,,OVC029,0.00,VWS V14.01,2013-11-21 21:33:00,
2013-11-21 16:38:00,43.1,33.3,30.44,East,79,0.0,2.0,68,0.00,,OVC029,0.00,VWS V14.01,2013-11-21 21:38:00,
2013-11-21 16:43:00,43.0,33.2,30.44,ESE,103,0.0,2.0,68,0.00,,OVC029,0.00,VWS V14.01,2013-11-21 21:43:00,
2013-11-21 16:48:00,43.0,33.2,30.43,East,96,1.0,2.0,68,0.00,,OVC029,0.00,VWS V14.01,2013-11-21 21:48:00,
2013-11-21 16:53:00,43.0,33.2,30.43,East,87,1.0,3.0,68,0.00,,OVC029,0.00,VWS V14.01,2013-11-21 21:53:00,
2013-11-21 16:58:00,43.0,33.2,30.43,SE,130,0.0,3.0,68,0.00,,OVC029,0.00,VWS V14.01,2013-11-21 21:58:00,
2013-11-21 17:03:00,43.0,33.2,30.43,SE,128,2.0,3.0,68,0.00,,OVC029,0.00,VWS V14.01,2013-11-21 22:03:00,
2013-11-21 17:08:00,42.9,33.4,30.44,East,88,0.0,3.0,69,0.00,,OVC029,0.00,VWS V14.01,2013-11-21 22:08:00,
2013-11-21 17:13:00,42.9,33.4,30.44,East,94,3.0,3.0,69,0.00,,OVC029,0.00,VWS V14.01,2013-11-21 22:13:00,
2013-11-21 17:18:00,42.9,33.4,30.44,SE,127,1.0,3.0,69,0.00,,OVC029,0.00,VWS V14.01,2013-11-21 22:18:00,
2013-11-21 17:23:00,42.9,33.4,30.44,East,82,0.0,3.0,69,0.00,,OVC029,0.00,VWS V14.01,2013-11-21 22:23:00,
2013-11-21 17:28:00,42.9,33.8,30.44,ENE,74,1.0,5.0,70,0.00,,OVC029,0.00,VWS V14.01,2013-11-21 22:28:00,
2013-11-21 17:33:00,42.9,33.8,30.43,ESE,103,1.0,2.0,70,0.00,,OVC060,0.00,VWS V14.01,2013-11-21 22:33:00,
2013-11-21 17:38:00,42.9,33.8,30.43,SE,141,0.0,2.0,70,0.00,,OVC060,0.00,VWS V14.01,2013-11-21 22:38:00,
2013-11-21 17:43:00,42.9,33.8,30.44,East,93,2.0,2.0,70,0.00,,OVC060,0.00,VWS V14.01,2013-11-21 22:43:00,
2013-11-21 17:48:00,42.9,33.8,30.44,East,95,0.0,3.0,70,0.00,,OVC060,0.00,VWS V14.01,2013-11-21 22:48:00,
2013-11-21 17:53:00,42.9,33.8,30.45,East,94,0.0,3.0,70,0.00,,OVC060,0.00,VWS V14.01,2013-11-21 22:53:00,
2013-11-21 17:58:00,42.9,33.8,30.44,East,95,0.0,3.0,70,0.00,,OVC060,0.00,VWS V14.01,2013-11-21 22:58:00,
2013-11-21 18:03:00,42.9,34.2,30.44,ESE,103,0.0,2.0,71,0.00,,BKN070,0.00,VWS V14.01,2013-11-21 23:03:00,
2013-11-21 18:08:00,42.9,33.8,30.44,ESE,112,0.0,2.0,70,0.00,,BKN070,0.00,VWS V14.01,2013-11-21 23:08:00,
2013-11-21 18:13:00,42.9,34.2,30.44,East,79,2.0,4.0,71,0.00,,BKN070,0.00,VWS V14.01,2013-11-21 23:13:00,
2013-11-21 18:18:00,43.0,34.2,30.44,East,96,0.0,4.0,71,0.00,,BKN070,0.00,VWS V14.01,2013-11-21 23:18:00,
2013-11-21 18:23:00,42.9,34.2,30.43,East,97,0.0,4.0,71,0.00,,BKN070,0.00,VWS V14.01,2013-11-21 23:23:00,
2013-11-21 18:28:00,42.9,34.5,30.44,East,101,0.0,4.0,72,0.00,,BKN070,0.00,VWS V14.01,2013-11-21 23:28:00,
2013-11-21 18:33:00,42.8,34.4,30.43,East,100,0.0,0.0,72,0.00,,BKN070,0.00,VWS V14.01,2013-11-21 23:33:00,
2013-11-21 18:38:00,42.8,34.4,30.43,East,87,0.0,2.0,72,0.00,,BKN070,0.00,VWS V14.01,2013-11-21 23:38:00,
2013-11-21 18:43:00,42.7,34.7,30.43,ESE,108,0.0,2.0,73,0.00,,BKN070,0.00,VWS V14.01,2013-11-21 23:43:00,
2013-11-21 18:48:00,42.7,34.7,30.42,SW,214,0.0,2.0,73,0.00,,BKN070,0.00,VWS V14.01,2013-11-21 23:48:00,
2013-11-21 18:53:00,42.6,34.6,30.42,South,187,0.0,2.0,73,0.00,,BKN070,0.00,VWS V14.01,2013-11-21 23:53:00,
2013-11-21 18:58:00,42.5,34.8,30.42,SE,125,0.0,2.0,74,0.00,,BKN070,0.00,VWS V14.01,2013-11-21 23:58:00,
2013-11-21 19:03:00,42.5,34.8,30.42,SE,125,0.0,0.0,74,0.00,,OVC095,0.00,VWS V14.01,2013-11-22 00:03:00,
2013-11-21 19:08:00,42.5,34.8,30.42,SW,232,1.0,1.0,74,0.00,,OVC095,0.00,VWS V14.01,2013-11-22 00:08:00,
2013-11-21 19:13:00,42.7,34.7,30.42,South,173,0.0,1.0,73,0.00,,OVC095,0.00,VWS V14.01,2013-11-22 00:13:00,
2013-11-21 19:18:00,42.8,34.8,30.42,East,84,0.0,1.0,73,0.00,,OVC095,0.00,VWS V14.01,2013-11-22 00:18:00,
2013-11-21 19:23:00,42.8,34.8,30.42,East,98,0.0,1.0,73,0.00,,OVC095,0.00,VWS V14.01,2013-11-22 00:23:00,
2013-11-21 19:28:00,42.9,34.5,30.42,ESE,123,2.0,2.0,72,0.00,,OVC095,0.00,VWS V14.01,2013-11-22 00:28:00,
2013-11-21 19:33:00,43.0,35.0,30.42,East,97,0.0,0.0,73,0.00,,OVC095,0.00,VWS V14.01,2013-11-22 00:33:00,
2013-11-21 19:38:00,43.1,35.0,30.42,ENE,73,1.0,2.0,73,0.00,,OVC095,0.00,VWS V14.01,2013-11-22 00:38:00,
2013-11-21 19:43:00,43.1,34.7,30.42,ENE,77,0.0,2.0,72,0.00,,OVC095,0.00,VWS V14.01,2013-11-22 00:43:00,
2013-11-21 19:48:00,43.1,35.0,30.41,ESE,107,0.0,2.0,73,0.00,,OVC095,0.00,VWS V14.01,2013-11-22 00:48:00,
2013-11-21 19:53:00,43.0,35.3,30.42,ESE,107,0.0,2.0,74,0.00,,OVC095,0.00,VWS V14.01,2013-11-22 00:53:00,
2013-11-21 19:58:00,42.9,35.2,30.41,ESE,108,0.0,2.0,74,0.00,,OVC095,0.00,VWS V14.01,2013-11-22 00:58:00,
2013-11-21 20:03:00,42.7,35.3,30.41,ESE,107,0.0,0.0,75,0.00,,-RA,0.00,VWS V14.01,2013-11-22 01:03:00,
2013-11-21 20:08:00,42.6,35.6,30.41,ESE,108,0.0,0.0,76,0.00,,-RA,0.00,VWS V14.01,2013-11-22 01:08:00,
2013-11-21 20:13:00,42.5,35.5,30.41,East,96,0.0,0.0,76,0.00,,-RA,0.00,VWS V14.01,2013-11-22 01:13:00,
2013-11-21 20:18:00,42.6,35.6,30.42,East,101,0.0,0.0,76,0.00,,-RA,0.00,VWS V14.01,2013-11-22 01:18:00,
2013-11-21 20:23:00,42.6,35.6,30.41,East,100,0.0,0.0,76,0.00,,-RA,0.00,VWS V14.01,2013-11-22 01:23:00,
2013-11-21 20:28:00,42.6,35.9,30.41,East,100,0.0,0.0,77,0.00,,-RA,0.00,VWS V14.01,2013-11-22 01:28:00,
2013-11-21 20:33:00,42.6,35.9,30.41,East,100,0.0,0.0,77,0.00,,-RA,0.00,VWS V14.01,2013-11-22 01:33:00,
2013-11-21 20:38:00,42.5,35.8,30.41,East,100,0.0,0.0,77,0.00,,-RA,0.00,VWS V14.01,2013-11-22 01:38:00,
2013-11-21 20:43:00,42.5,36.1,30.41,NE,46,1.0,2.0,78,0.00,,-RA,0.00,VWS V14.01,2013-11-22 01:43:00,
2013-11-21 20:48:00,42.4,36.4,30.41,NE,45,1.0,2.0,79,0.00,,-RA,0.00,VWS V14.01,2013-11-22 01:48:00,
2013-11-21 20:53:00,42.2,36.5,30.41,NE,45,0.0,2.0,80,0.00,,-RA,0.00,VWS V14.01,2013-11-22 01:53:00,
2013-11-21 20:58:00,42.0,36.3,30.41,NE,51,0.0,2.0,80,0.00,,-RA,0.00,VWS V14.01,2013-11-22 01:58:00,
2013-11-21 21:03:00,41.8,36.4,30.40,ENE,73,0.0,1.0,81,0.00,,OVC070,0.00,VWS V14.01,2013-11-22 02:03:00,
2013-11-21 21:08:00,41.7,36.3,30.40,East,79,0.0,1.0,81,0.00,,OVC070,0.00,VWS V14.01,2013-11-22 02:08:00,
2013-11-21 21:13:00,41.6,36.5,30.40,East,79,0.0,1.0,82,0.00,,OVC070,0.00,VWS V14.01,2013-11-22 02:13:00,
2013-11-21 21:18:00,41.6,36.5,30.40,ESE,113,3.0,3.0,82,0.00,,OVC070,0.00,VWS V14.01,2013-11-22 02:18:00,
2013-11-21 21:23:00,41.7,36.0,30.40,ESE,105,0.0,3.0,80,0.00,,OVC070,0.00,VWS V14.01,2013-11-22 02:23:00,
2013-11-21 21:28:00,41.8,36.1,30.40,East,91,2.0,3.0,80,0.00,,OVC070,0.00,VWS V14.01,2013-11-22 02:28:00,
2013-11-21 21:33:00,41.9,35.9,30.40,East,96,0.0,2.0,79,0.00,,OVC070,0.00,VWS V14.01,2013-11-22 02:33:00,
2013-11-21 21:38:00,41.9,35.9,30.40,ESE,102,0.0,2.0,79,0.00,,OVC070,0.00,VWS V14.01,2013-11-22 02:38:00,
2013-11-21 21:43:00,41.9,36.2,30.40,ESE,103,0.0,2.0,80,0.00,,OVC070,0.00,VWS V14.01,2013-11-22 02:43:00,
2013-11-21 21:48:00,41.8,35.8,30.40,East,101,1.0,2.0,79,0.00,,OVC070,0.00,VWS V14.01,2013-11-22 02:48:00,
2013-11-21 21:53:00,41.8,35.5,30.40,East,97,1.0,3.0,78,0.00,,OVC070,0.00,VWS V14.01,2013-11-22 02:53:00,
2013-11-21 21:58:00,41.8,35.5,30.40,East,82,0.0,3.0,78,0.00,,OVC070,0.00,VWS V14.01,2013-11-22 02:58:00,
2013-11-21 22:03:00,41.7,35.4,30.40,East,98,2.0,2.0,78,0.00,,OVC070,0.00,VWS V14.01,2013-11-22 03:03:00,
2013-11-21 22:08:00,41.7,35.0,30.39,East,93,2.0,2.0,77,0.00,,OVC070,0.00,VWS V14.01,2013-11-22 03:08:00,
2013-11-21 22:13:00,41.6,34.9,30.39,East,89,1.0,4.0,77,0.00,,OVC070,0.00,VWS V14.01,2013-11-22 03:13:00,
2013-11-21 22:18:00,41.6,34.9,30.39,East,87,3.0,5.0,77,0.00,,OVC070,0.00,VWS V14.01,2013-11-22 03:18:00,
2013-11-21 22:23:00,41.6,35.3,30.39,East,98,1.0,5.0,78,0.00,,OVC070,0.00,VWS V14.01,2013-11-22 03:23:00,
2013-11-21 22:28:00,41.6,35.3,30.38,East,91,4.0,5.0,78,0.00,,OVC070,0.00,VWS V14.01,2013-11-22 03:28:00,
2013-11-21 22:33:00,41.6,34.9,30.38,ENE,75,3.0,5.0,77,0.00,,OVC070,0.00,VWS V14.01,2013-11-22 03:33:00,
2013-11-21 22:38:00,41.5,34.8,30.38,East,100,3.0,5.0,77,0.00,,OVC070,0.00,VWS V14.01,2013-11-22 03:38:00,
2013-11-21 22:43:00,41.5,34.8,30.37,East,89,2.0,6.0,77,0.00,,OVC070,0.00,VWS V14.01,2013-11-22 03:43:00,
2013-11-21 22:48:00,41.5,34.8,30.37,ENE,77,1.0,6.0,77,0.00,,OVC070,0.00,VWS V14.01,2013-11-22 03:48:00,
2013-11-21 22:53:00,41.5,34.8,30.38,ENE,77,0.0,6.0,77,0.00,,OVC070,0.00,VWS V14.01,2013-11-22 03:53:00,
2013-11-21 22:58:00,41.5,35.2,30.37,East,80,1.0,6.0,78,0.00,,OVC070,0.00,VWS V14.01,2013-11-22 03:58:00,
2013-11-21 23:03:00,41.5,35.2,30.37,NE,39,0.0,1.0,78,0.00,,OVC048,0.00,VWS V14.01,2013-11-22 04:03:00,
2013-11-21 23:08:00,41.4,35.4,30.37,NE,39,0.0,1.0,79,0.00,,OVC048,0.00,VWS V14.01,2013-11-22 04:08:00,
2013-11-21 23:13:00,41.5,35.8,30.37,East,82,0.0,1.0,80,0.00,,OVC048,0.00,VWS V14.01,2013-11-22 04:13:00,
2013-11-21 23:18:00,41.6,35.9,30.36,East,97,0.0,1.0,80,0.00,,OVC048,0.00,VWS V14.01,2013-11-22 04:18:00,
2013-11-21 23:23:00,41.7,35.7,30.36,East,97,0.0,1.0,79,0.00,,OVC048,0.00,VWS V14.01,2013-11-22 04:23:00,
2013-11-21 23:28:00,41.6,35.6,30.36,SW,231,0.0,1.0,79,0.00,,OVC048,0.00,VWS V14.01,2013-11-22 04:28:00,
2013-11-21 23:33:00,41.6,35.6,30.36,SW,230,0.0,0.0,79,0.00,,OVC048,0.00,VWS V14.01,2013-11-22 04:33:00,
2013-11-21 23:38:00,41.6,35.6,30.36,SW,231,0.0,0.0,79,0.00,,OVC048,0.00,VWS V14.01,2013-11-22 04:38:00,
2013-11-21 23:43:00,41.5,35.5,30.36,SW,231,0.0,0.0,79,0.00,,OVC048,0.00,VWS V14.01,2013-11-22 04:43:00,
2013-11-21 23:48:00,41.6,35.6,30.36,SW,231,0.0,0.0,79,0.00,,OVC048,0.00,VWS V14.01,2013-11-22 04:48:00,
2013-11-21 23:53:00,41.6,35.6,30.35,East,85,1.0,2.0,79,0.00,,OVC048,0.00,VWS V14.01,2013-11-22 04:53:00,
2013-11-21 23:58:00,41.7,35.7,30.35,East,96,0.0,2.0,79,0.00,,OVC048,0.00,VWS V14.01,2013-11-22 04:58:00,